Wind_Speed
22 24 27 29 30 30 33 37 41 40 39 36 36 34 33 32 32 33 33 33 34 35 35 35 35 35 34 32 32 32 33 33 33 34 35 36 36 36 36 37 37 37 36 34
22 25 28 28 26 28 29 31 33 33 32 30 29 32 33 32 32 32 31 31 31 31 32 34 35 35 33 32 32 32 33 33 33 34 34 35 36 37 37 38 39 40 40 40
23 25 28 25 28 28 27 27 25 25 25 24 26 27 29 29 29 28 27 27 26 27 28 29 31 33 32 31 30 30 30 31 33 34 34 35 35 36 37 38 39 41 42 43
23 26 25 27 28 25 23 22 19 19 19 17 19 20 21 22 21 21 21 21 21 22 23 24 26 28 29 29 30 30 30 31 31 32 33 34 35 36 37 39 40 41 43 44
22 23 24 25 26 21 18 14 14 14 14 14 14 14 15 16 17 17 18 18 18 18 18 20 23 25 27 29 29 28 28 29 29 30 31 32 33 34 35 37 38 39 41 43
20 21 22 24 23 20 16 12 11 11 11 10 10 11 11 13 14 15 14 14 14 15 15 16 18 20 22 24 25 25 25 25 26 27 29 30 32 33 35 36 36 37 37 38
20 20 20 21 21 19 16 13 11 10 9 9 10 10 10 11 11 12 12 12 12 13 14 15 16 17 19 21 22 23 23 23 24 26 28 29 30 31 32 32 31 30 30 31
20 20 20 19 19 18 16 12 10 10 10 10 10 11 11 11 12 12 12 13 13 14 15 16 17 18 20 21 21 22 22 22 24 25 26 26 27 27 25 24 23 23 23 24
21 21 21 19 18 17 15 13 11 10 10 10 10 9 9 10 10 10 10 10 11 12 13 14 15 16 17 19 20 20 20 20 21 21 22 22 22 22 22 22 22 21 22 22
22 21 22 20 18 16 15 13 11 9 9 8 7 7 7 7 6 6 6 6 7 7 8 10 11 12 14 15 16 17 17 18 18 19 19 19 20 20 21 22 23 24 25 26
26 22 22 21 19 18 16 14 11 9 8 6 6 5 5 5 5 5 5 5 5 5 6 6 7 8 10 11 13 14 15 17 18 18 18 19 19 19 19 20 21 23 25 27
29 26 25 22 21 19 18 16 15 13 11 9 8 7 7 7 7 7 6 6 6 6 6 7 7 7 8 9 10 12 14 15 16 17 18 18 19 20 21 22 23 24 26 28
29 27 26 24 23 22 21 19 19 18 17 16 14 13 12 11 10 10 9 9 8 8 8 8 8 8 9 9 10 12 13 14 15 16 17 18 19 20 21 23 24 25 26 28
25 25 26 25 25 25 24 23 22 21 21 21 21 20 18 16 15 14 14 13 12 12 12 11 11 11 11 12 13 14 14 15 15 16 17 17 19 20 21 22 24 25 26 27
23 23 24 25 26 27 27 27 27 26 25 25 25 25 24 22 20 19 18 18 17 16 15 15 15 15 15 15 16 16 16 17 17 17 17 18 19 20 22 23 24 25 24 23
21 21 22 24 25 26 28 29 30 30 30 29 28 28 28 27 25 23 22 21 20 19 19 18 18 17 17 18 18 18 18 19 19 19 19 20 20 21 21 22 23 24 25 24
22 21 22 23 23 25 26 28 29 30 30 30 31 32 32 30 29 27 26 24 23 22 21 21 20 19 18 19 19 19 19 20 20 20 20 20 19 18 19 20 21 22 24 25
23 22 22 23 24 26 27 27 27 28 28 29 30 30 31 33 33 31 29 27 25 24 23 23 22 20 20 20 20 21 20 20 20 20 20 18 17 17 18 19 21 22 24 26
26 25 25 26 27 29 30 30 30 30 30 29 29 29 30 31 33 35 34 30 27 25 25 24 22 21 21 21 21 21 21 21 20 20 19 17 16 17 18 20 22 24 27 30
29 29 29 30 30 31 32 32 32 31 31 31 30 30 29 29 31 33 35 34 29 26 25 24 22 21 21 22 21 21 21 22 22 21 19 17 17 17 19 21 23 26 29 32
33 33 34 34 35 35 35 35 34 33 33 32 31 29 28 27 28 29 31 32 31 28 26 24 21 20 21 21 21 21 21 21 21 21 19 19 18 18 19 22 25 28 31 33
37 37 38 39 39 39 38 37 37 35 34 32 31 29 28 26 24 24 25 26 29 30 28 24 21 20 21 21 20 20 20 21 20 20 19 19 19 20 21 24 27 29 32 34
43 43 43 43 43 42 40 39 38 37 35 33 31 29 27 25 23 21 19 21 24 27 28 25 24 22 22 22 20 19 19 20 20 20 20 20 20 22 24 26 28 30 32 34
49 47 47 46 46 44 42 40 39 37 35 33 32 30 28 27 25 22 20 19 20 22 25 26 26 24 23 22 21 20 20 19 19 19 20 20 21 23 25 27 29 30 33 35
51 50 48 47 46 44 43 41 39 37 35 34 32 31 29 28 26 24 22 20 19 19 21 23 24 24 24 23 21 21 20 19 19 19 20 21 22 25 27 29 30 32 34 36
50 49 46 45 43 41 40 39 38 36 35 34 32 31 30 29 27 26 25 22 20 19 19 20 20 20 21 21 20 21 20 19 18 19 20 22 24 26 28 30 32 34 36 38
46 43 41 38 37 37 36 36 35 34 34 33 33 32 32 31 30 29 28 27 25 23 21 20 20 19 19 20 21 21 21 20 19 19 21 23 25 28 30 31 33 35 37 38
Wind_Direction
318 316 313 310 302 293 287 285 284 280 278 272 260 258 262 264 270 272 273 272 268 263 260 260 261 262 263 265 265 264 262 261 263 266 269 270 272 274 276 279 280 281 284 286
320 322 322 319 314 302 294 293 289 286 282 277 269 264 269 271 273 274 271 270 268 266 263 261 259 259 260 261 261 261 260 259 261 266 269 272 273 275 276 277 277 277 279 281
323 326 327 327 321 313 303 302 296 290 285 277 272 269 269 273 274 272 269 267 269 269 268 263 258 256 256 257 257 259 261 262 264 267 271 273 275 276 277 278 277 277 277 278
322 329 332 330 334 326 314 308 304 298 294 281 273 270 269 271 269 264 262 261 262 266 267 264 258 254 252 254 258 260 263 265 268 270 272 275 277 279 280 280 280 279 278 278
319 326 332 334 340 338 327 312 307 306 302 293 284 279 274 269 262 258 257 256 256 261 263 260 256 253 253 256 258 261 264 267 269 272 274 276 278 279 279 280 280 280 279 278
310 320 329 334 344 346 339 325 315 309 308 302 295 289 281 272 265 259 257 255 255 257 259 259 256 254 254 256 257 261 266 270 273 275 278 279 281 281 280 279 279 278 279 279
308 314 317 330 339 342 340 339 324 311 304 294 290 287 280 273 268 265 262 261 260 261 261 261 261 260 258 259 262 266 270 274 278 282 284 284 284 283 282 280 280 279 279 279
295 300 302 322 328 334 337 337 329 319 307 298 293 287 283 280 278 278 277 276 274 273 271 268 266 265 264 264 266 269 273 278 282 284 284 283 282 281 280 279 278 278 278 280
282 287 295 303 312 321 330 332 328 322 318 313 309 304 297 291 289 288 287 285 282 278 275 272 270 268 269 271 272 274 277 280 283 284 284 282 280 278 277 276 276 278 280 282
268 273 280 287 294 304 314 323 327 330 327 325 328 331 328 322 317 315 312 309 305 300 293 287 284 282 281 280 279 278 277 280 284 287 288 286 283 281 279 280 280 280 282 283
265 266 270 276 282 288 296 303 307 310 316 322 328 332 333 334 334 334 336 338 336 331 325 317 309 303 299 292 287 284 282 283 286 288 289 288 287 286 285 285 284 283 283 284
263 263 266 270 274 277 280 283 287 289 290 291 296 302 305 306 309 311 314 318 323 326 329 330 328 321 313 306 299 293 289 288 288 289 289 289 290 291 291 291 290 288 287 287
272 262 262 265 268 270 272 274 275 277 278 279 280 284 287 289 290 292 292 294 299 303 306 308 310 310 308 305 301 298 295 294 293 293 293 293 294 295 296 295 295 294 293 292
284 269 261 260 263 266 268 268 268 269 270 272 274 275 277 279 280 281 283 285 287 289 291 292 293 294 295 296 296 295 295 295 295 295 296 297 299 300 301 300 299 299 299 298
296 281 268 263 263 265 267 267 267 266 266 266 267 270 271 272 273 275 277 279 281 283 284 285 285 286 288 290 291 292 293 294 294 296 299 301 303 304 306 306 305 303 302 302
303 295 282 273 271 272 273 272 272 272 271 268 264 262 264 266 268 270 271 273 275 277 279 280 282 284 286 287 289 290 291 292 294 296 299 302 305 307 309 311 312 312 312 312
305 299 293 287 284 284 284 284 282 279 279 278 272 265 259 259 261 264 266 268 270 273 275 276 279 282 284 286 288 289 291 292 293 295 299 301 302 305 310 313 315 315 315 317
304 299 296 293 291 289 289 289 289 289 288 286 282 276 268 259 255 256 260 263 266 269 271 273 275 278 281 284 286 288 290 290 291 294 297 298 298 303 309 313 314 314 315 316
301 298 295 292 290 288 288 288 288 288 287 286 285 282 277 269 262 257 255 257 260 264 267 270 272 274 276 279 283 286 288 289 290 291 293 294 294 300 307 312 315 315 315 315
297 295 292 289 288 287 286 285 285 285 286 285 284 281 279 276 270 264 259 255 254 258 262 265 268 270 272 275 279 283 286 288 290 291 290 288 289 295 303 308 311 312 313 314
294 292 289 287 285 283 282 282 281 282 282 281 280 277 275 274 274 270 266 260 254 253 255 259 261 264 267 272 276 280 284 285 287 288 286 285 286 292 299 304 308 310 313 315
291 289 287 284 283 282 281 280 279 278 278 277 275 271 268 268 271 273 272 267 257 251 251 254 257 260 265 270 274 277 281 284 286 287 286 285 286 291 297 303 307 309 313 316
287 286 285 283 282 280 279 279 277 275 273 272 271 267 263 261 263 268 273 272 265 256 250 250 253 256 261 267 272 273 277 281 284 287 286 286 287 291 297 303 307 309 313 316
284 283 283 282 280 279 277 276 274 272 270 267 264 263 259 256 256 261 267 272 270 262 254 251 251 254 259 265 267 269 273 278 282 286 289 290 291 295 300 305 308 311 314 316
283 282 281 280 278 277 275 273 271 269 265 262 259 258 256 254 254 255 259 264 267 265 259 254 253 256 261 264 265 265 269 275 281 286 290 293 296 300 304 307 310 313 316 317
281 281 280 279 276 273 271 269 267 265 261 258 255 254 254 253 252 252 254 257 261 263 262 258 257 257 259 262 263 264 267 272 279 287 293 296 299 301 304 306 309 311 314 316
279 280 279 277 274 271 267 265 263 261 259 257 254 253 253 254 254 253 253 254 255 257 260 260 259 257 260 262 263 262 263 268 278 289 296 298 300 304 307 308 307 308 312 315
Height
5784 5780 5774 5769 5763 5758 5752 5746 5740 5737 5735 5735 5736 5736 5736 5735 5737 5739 5741 5743 5744 5746 5747 5748 5749 5751 5752 5753 5755 5756 5756 5757 5757 5757 5756 5756 5756 5756 5756 5755 5753 5753 5753 5753
5779 5773 5767 5761 5755 5749 5744 5738 5732 5728 5726 5724 5725 5727 5727 5727 5729 5731 5733 5735 5736 5738 5739 5740 5741 5743 5744 5746 5747 5748 5749 5749 5750 5749 5749 5748 5748 5748 5748 5747 5746 5745 5745 5744
5773 5768 5761 5754 5749 5742 5736 5731 5726 5722 5720 5718 5718 5719 5720 5721 5723 5724 5725 5727 5729 5730 5731 5732 5733 5735 5737 5739 5740 5741 5742 5742 5742 5742 5741 5741 5740 5740 5739 5738 5737 5737 5736 5736
5768 5763 5756 5753 5743 5737 5731 5726 5722 5718 5715 5714 5714 5714 5715 5715 5717 5718 5719 5720 5722 5723 5724 5725 5726 5728 5730 5732 5733 5734 5734 5735 5735 5734 5734 5733 5732 5731 5730 5729 5728 5727 5727 5727
5764 5759 5754 5748 5741 5734 5729 5724 5720 5717 5715 5713 5712 5711 5711 5712 5712 5713 5714 5715 5716 5717 5718 5719 5720 5722 5723 5725 5726 5726 5727 5727 5727 5727 5726 5725 5724 5723 5722 5721 5720 5719 5718 5718
5759 5755 5750 5746 5739 5733 5729 5724 5721 5717 5715 5713 5711 5710 5711 5710 5710 5710 5710 5711 5711 5712 5713 5714 5715 5716 5717 5718 5719 5719 5720 5720 5720 5719 5718 5718 5717 5716 5714 5713 5712 5711 5710 5710
5754 5751 5748 5743 5738 5734 5730 5727 5721 5718 5715 5713 5712 5711 5710 5709 5708 5708 5707 5708 5708 5708 5709 5709 5710 5711 5712 5712 5713 5713 5713 5713 5713 5712 5712 5710 5709 5708 5706 5705 5704 5703 5703 5702
5750 5747 5746 5740 5736 5733 5730 5724 5721 5718 5716 5713 5712 5710 5708 5707 5706 5705 5705 5704 5704 5705 5705 5705 5706 5706 5706 5707 5707 5707 5707 5707 5707 5706 5705 5704 5702 5701 5700 5699 5698 5697 5697 5696
5745 5744 5740 5737 5734 5731 5727 5723 5720 5717 5715 5712 5710 5709 5707 5705 5704 5703 5702 5702 5701 5701 5701 5701 5702 5702 5702 5702 5702 5702 5702 5702 5701 5701 5699 5698 5697 5696 5695 5694 5693 5693 5692 5692
5737 5737 5734 5732 5730 5728 5725 5722 5719 5716 5714 5712 5709 5707 5706 5704 5703 5701 5700 5700 5699 5698 5698 5698 5697 5697 5697 5697 5697 5697 5697 5697 5696 5695 5694 5693 5692 5691 5690 5690 5689 5688 5687 5686
5728 5729 5728 5727 5725 5724 5722 5719 5717 5715 5713 5711 5709 5707 5705 5704 5702 5701 5700 5699 5698 5697 5696 5695 5694 5694 5694 5693 5693 5693 5693 5692 5692 5691 5690 5689 5688 5687 5686 5685 5683 5682 5681 5680
5720 5721 5720 5720 5719 5718 5717 5715 5714 5712 5710 5709 5707 5706 5705 5703 5702 5701 5699 5698 5697 5696 5695 5693 5692 5692 5691 5691 5690 5690 5689 5688 5688 5687 5686 5685 5684 5682 5681 5680 5678 5676 5675 5673
5711 5711 5712 5713 5712 5712 5711 5710 5709 5708 5707 5706 5704 5703 5703 5702 5700 5699 5698 5696 5695 5694 5693 5692 5691 5690 5689 5688 5687 5686 5685 5684 5683 5682 5681 5680 5679 5677 5676 5674 5672 5670 5668 5666
5704 5704 5704 5705 5705 5705 5704 5704 5703 5702 5701 5701 5700 5699 5698 5698 5697 5696 5695 5693 5692 5691 5690 5689 5688 5687 5686 5685 5684 5683 5682 5680 5679 5678 5676 5675 5673 5672 5670 5668 5666 5663 5661 5658
5699 5697 5697 5697 5697 5697 5697 5696 5696 5695 5695 5694 5694 5693 5693 5692 5692 5691 5690 5689 5688 5687 5686 5685 5684 5683 5682 5681 5680 5679 5677 5676 5675 5673 5671 5670 5667 5665 5664 5661 5659 5657 5655 5652
5693 5691 5690 5690 5690 5689 5688 5688 5687 5687 5686 5686 5686 5686 5685 5685 5685 5685 5684 5683 5682 5681 5681 5680 5679 5678 5677 5676 5675 5674 5672 5671 5669 5668 5666 5664 5662 5660 5657 5655 5652 5649 5647 5645
5687 5686 5684 5683 5683 5682 5681 5680 5679 5678 5677 5677 5676 5676 5677 5677 5678 5677 5677 5676 5676 5675 5674 5674 5673 5672 5671 5670 5669 5668 5667 5665 5663 5661 5660 5658 5657 5655 5652 5650 5647 5644 5641 5638
5681 5679 5678 5677 5676 5675 5674 5672 5671 5669 5668 5667 5666 5666 5666 5667 5668 5668 5669 5669 5668 5668 5667 5667 5666 5666 5665 5664 5663 5661 5661 5659 5657 5655 5654 5652 5651 5649 5647 5645 5642 5639 5635 5632
5674 5672 5670 5669 5667 5666 5665 5664 5663 5661 5660 5659 5657 5657 5656 5657 5657 5658 5658 5659 5660 5660 5659 5659 5659 5659 5658 5657 5656 5655 5653 5652 5651 5649 5648 5646 5645 5643 5641 5639 5636 5633 5629 5625
5665 5663 5661 5659 5658 5657 5656 5655 5653 5652 5651 5650 5648 5647 5647 5647 5647 5647 5647 5649 5650 5651 5651 5650 5651 5651 5650 5649 5649 5648 5647 5645 5644 5642 5641 5640 5639 5637 5635 5633 5630 5627 5623 5618
5656 5653 5651 5650 5648 5647 5645 5644 5643 5642 5641 5640 5639 5638 5638 5638 5637 5637 5637 5639 5641 5641 5641 5642 5643 5643 5642 5642 5641 5641 5640 5639 5637 5636 5634 5633 5632 5631 5629 5627 5624 5620 5616 5611
5644 5642 5640 5638 5636 5635 5634 5633 5632 5631 5631 5630 5629 5629 5629 5629 5628 5628 5628 5629 5630 5631 5632 5633 5634 5635 5635 5634 5634 5634 5633 5632 5631 5629 5628 5627 5625 5624 5622 5620 5616 5613 5608 5603
5631 5629 5627 5625 5623 5622 5622 5621 5620 5619 5619 5619 5619 5619 5619 5620 5620 5620 5620 5621 5621 5622 5623 5625 5626 5627 5627 5626 5627 5627 5626 5625 5624 5623 5622 5620 5619 5617 5615 5612 5609 5605 5600 5596
5616 5614 5612 5610 5609 5608 5607 5607 5607 5607 5607 5608 5608 5609 5610 5611 5611 5612 5612 5612 5612 5613 5615 5616 5618 5618 5619 5619 5619 5619 5619 5618 5617 5616 5615 5613 5612 5610 5607 5604 5601 5597 5593 5588
5598 5597 5595 5594 5593 5592 5592 5592 5593 5593 5594 5596 5597 5599 5600 5601 5602 5603 5604 5604 5605 5606 5606 5608 5609 5610 5611 5611 5612 5612 5611 5611 5611 5609 5608 5607 5605 5602 5599 5596 5593 5589 5584 5580
5581 5580 5579 5578 5577 5576 5576 5577 5578 5580 5581 5583 5585 5587 5589 5590 5592 5594 5595 5596 5597 5598 5599 5600 5601 5602 5603 5604 5604 5604 5604 5604 5604 5603 5601 5599 5597 5595 5591 5588 5584 5581 5577 5572
5564 5563 5563 5562 5562 5561 5562 5563 5564 5566 5568 5570 5572 5575 5577 5579 5581 5583 5585 5587 5588 5589 5591 5592 5593 5595 5596 5596 5597 5597 5597 5597 5597 5596 5594 5592 5589 5586 5583 5580 5577 5573 5569 5564